Regional Weather Roundup
Issued by NWS Mt. Holly, NJ

Home | Current Version | Previous Version | Text Only | Print | Product List | Glossary On
Versions: 1 2 3 4 5 6 7 8 9 10 11 12 13 14 15 16 17 18 19 20 21 22 23 24 25 26 27 28 29 30 31 32 33 34 35 36 37 38 39 40 41 42 43 44 45 46 47 48 49 50
000
ASUS41 KPHI 161312
RWRPHI

REGIONAL WEATHER ROUNDUP
NATIONAL WEATHER SERVICE MOUNT HOLLY NJ
800 AM EST TUE JAN 16 2018

NOTE:  "FAIR" INDICATES FEW OR NO CLOUDS BELOW 12,000 FEET WITH NO
SIGNIFICANT WEATHER AND/OR OBSTRUCTIONS TO VISIBILITY.

 * = STATION DOES NOT REPORT PRECIPITATION (E.G. RAIN, SNOW, ETC.)
        OR FOG.

NJZ015>026-161400-
SOUTHERN NEW JERSEY

CITY           SKY/WX    TMP DP  RH WIND       PRES   REMARKS
POMONA         CLOUDY    29  27  92 NW3       30.50R
WILDWOOD*      FAIR      29  28  96 NE6       30.50R WCI  23
MILLVILLE      CLOUDY    30  28  92 CALM      30.49R
WRIGHTSTOWN    CLOUDY    28  23  82 NE3       30.48R
MOUNT HOLLY    CLOUDY    28  24  85 N3        30.51R
TRENTON        CLOUDY    27  22  81 E5        30.49S WCI  22

$$
NJZ001>014-161400-
NORTHERN NEW JERSEY

CITY           SKY/WX    TMP DP  RH WIND       PRES   REMARKS
SUSSEX         CLOUDY    22  19  89 CALM      30.46S FOG
ANDOVER*         N/A     22  19  89 CALM      30.45F
MORRISTOWN     CLOUDY    25  19  80 N3        30.52R
NEWARK         CLOUDY    27  19  72 NE6       30.51S WCI  20
TETERBORO      CLOUDY    27  19  72 NE5       30.51S WCI  22
CALDWELL       CLOUDY    25  18  74 E3        30.51S
SOMERVILLE     CLOUDY    26  20  77 CALM      30.49R
ALLAIRE*       CLOUDY    29  27  92 E5        30.51R WCI  24
TOMS RIVER*    CLOUDY    28  25  88 CALM      30.51R

$$
PAZ043-044-047-054-055-060>062-066>071-161400-
EASTERN PENNSYLVANIA

CITY           SKY/WX    TMP DP  RH WIND       PRES   REMARKS
PHILADELPHIA   FLURRIES  30  25  81 NE5       30.51R WCI  25
NORTH PHILA    CLOUDY    30  23  75 E5        30.51S WCI  25
BLUE BELL*     CLOUDY    27  25  93 CALM      30.50S
DOYLESTOWN     FLURRIES  25  22  88 CALM      30.47F
QUAKERTOWN*    CLOUDY    25  25 100 CALM      30.47S
PERKASIE*      LGT SNOW  25  25 100 CALM      30.47S
POTTSTOWN      CLOUDY    25  24  96 CALM      30.49S FOG
LANCASTER      LGT SNOW  28  28 100 CALM      30.45F VSB 1
COATESVILLE    MOCLDY    27  28 100 SE5       30.46S FOG     WCI  21
READING        LGT SNOW  28  27  96 S5        30.45F FOG     WCI  23
ALLENTOWN      LGT SNOW  27  22  81 E5        30.47S WCI  22
MOUNT POCONO   LGT SNOW  19  18  95 S3        30.35R FOG
HAZLETON       LGT SNOW  25  21  86 CALM      30.39R
LEHIGHTON      LGT SNOW  27  23  86 CALM      30.47S
WILKES BARRE   LGT SNOW  24  23  96 CALM      30.40R FOG

$$
DEZALL-MDZ008-012-015-019-020-161400-
DELAWARE AND EASTERN MARYLAND

CITY           SKY/WX    TMP DP  RH WIND       PRES   REMARKS
WILMINGTON     MOCLDY    29  26  89 E3        30.50S
DOVER          PTCLDY    27  27 100 NE3       30.48S
GEORGETOWN     FAIR      27  25  92 NW3       30.49R
EASTON         MOCLDY    30  25  80 CALM      30.52F
ABERDEEN       CLOUDY    27  25  93 CALM      30.49S FOG
OCEAN CITY     FAIR      29  29 100 NW6       30.48R WCI  23
WALLOPS ISLAND MOCLDY    29  28  96 NW7       30.48R FOG     WCI  22
CAMBRIDGE      CLOUDY    30  25  80 CALM      30.48F
SALISBURY      FAIR      26  25  96 NW5       30.48R FOG     WCI  20

$$
PAZ001-021-NYZ056-072-MDZ011-DCZ001-161400-
OTHER NEARBY LOCATIONS

CITY           SKY/WX    TMP DP  RH WIND       PRES   REMARKS
HARRISBURG     LGT SNOW  29  28  96 E3        30.46R
STATE COLLEGE  LGT SNOW  21  19  93 CALM      30.37S
WILLIAMSPORT   LGT SNOW  24  22  91 CALM      30.43R FOG
BINGHAMTON     CLOUDY    21  19  93 S6        30.32R WCI  14
NEW YORK CITY  CLOUDY    28  23  81 SE5       30.52S WCI  23
BALTIMORE        N/A     29  28  96 S3        30.47F FOG
WASHINGTON DC  CLOUDY    30  27  88 E5        30.49S WCI  25

$$



USA.gov is the U.S. government's official web portal to all federal, state and local government web resources and services.